TimeCST,TemperatureF,Dew PointF,Humidity,Sea Level PressureIn,VisibilityMPH,Wind Direction,Wind SpeedMPH,Gust SpeedMPH,PrecipitationIn,Events,Conditions,WindDirDegrees,DateUTC
12:15 AM,32.0,30.2,93,29.53,10.0,West,25.3,32.2,N/A,Snow,Light Snow,260,2013-01-12 06:15:00
12:35 AM,30.2,30.2,100,29.54,10.0,WSW,24.2,-,N/A,Snow,Light Snow,250,2013-01-12 06:35:00
12:55 AM,30.2,28.4,93,29.55,10.0,WSW,20.7,27.6,N/A,Snow,Light Snow,250,2013-01-12 06:55:00
1:15 AM,28.4,26.6,93,29.58,10.0,West,28.8,35.7,N/A,Snow,Light Snow,260,2013-01-12 07:15:00
1:35 AM,26.6,24.8,93,29.60,10.0,West,24.2,36.8,N/A,Snow,Light Snow,260,2013-01-12 07:35:00
1:55 AM,26.6,23.0,86,29.62,10.0,West,32.2,39.1,N/A,Snow,Light Snow,260,2013-01-12 07:55:00
2:15 AM,26.6,21.2,80,29.65,10.0,West,29.9,38.0,N/A,Snow,Light Snow,270,2013-01-12 08:15:00
2:35 AM,24.8,21.2,86,29.68,10.0,West,28.8,34.5,N/A,Snow,Light Snow,280,2013-01-12 08:35:00
2:55 AM,24.8,19.4,80,29.68,10.0,West,31.1,38.0,N/A,Snow,Light Snow,260,2013-01-12 08:55:00
3:15 AM,23.0,19.4,86,29.70,6.0,West,28.8,36.8,N/A,Snow,Light Snow,270,2013-01-12 09:15:00
3:35 AM,23.0,17.6,80,29.72,6.0,West,28.8,-,N/A,Snow,Light Snow,270,2013-01-12 09:35:00
3:55 AM,21.2,14.0,74,29.74,10.0,West,29.9,35.7,N/A,Snow,Light Snow,260,2013-01-12 09:55:00
4:15 AM,19.4,14.0,80,29.75,3.0,West,28.8,38.0,N/A,Snow,Light Snow,270,2013-01-12 10:15:00
4:35 AM,19.4,12.2,74,29.77,10.0,West,26.5,34.5,N/A,Snow,Light Snow,260,2013-01-12 10:35:00
4:55 AM,17.6,10.4,73,29.79,10.0,West,32.2,38.0,N/A,Snow,Light Snow,270,2013-01-12 10:55:00
5:15 AM,17.6,10.4,73,29.79,10.0,West,23.0,34.5,N/A,Snow,Light Snow,270,2013-01-12 11:15:00
5:35 AM,17.6,10.4,73,29.80,10.0,West,24.2,32.2,N/A,Snow,Light Snow,270,2013-01-12 11:35:00
5:55 AM,17.6,10.4,73,29.82,10.0,West,29.9,35.7,N/A,Snow,Light Snow,260,2013-01-12 11:55:00
6:15 AM,15.8,8.6,73,29.83,8.0,West,25.3,33.4,N/A,Snow,Light Snow,270,2013-01-12 12:15:00
6:35 AM,15.8,6.8,68,29.86,10.0,West,18.4,29.9,N/A,Snow,Light Snow,280,2013-01-12 12:35:00
6:55 AM,15.8,6.8,68,29.87,-9999.0,West,18.4,26.5,N/A,Snow,Light Snow,280,2013-01-12 12:55:00
7:15 AM,15.8,6.8,68,29.87,10.0,West,20.7,27.6,N/A,Snow,Light Snow,270,2013-01-12 13:15:00
7:35 AM,15.8,8.6,73,29.89,10.0,West,17.3,-,N/A,Snow,Light Snow,270,2013-01-12 13:35:00
7:55 AM,15.8,8.6,73,29.89,10.0,West,17.3,24.2,N/A,Snow,Light Snow,260,2013-01-12 13:55:00
8:15 AM,15.8,8.6,73,29.90,10.0,West,21.9,-,N/A,Snow,Light Snow,270,2013-01-12 14:15:00
8:35 AM,15.8,8.6,73,29.90,10.0,West,20.7,-,N/A,Snow,Light Snow,260,2013-01-12 14:35:00
8:55 AM,15.8,8.6,73,29.91,10.0,WNW,19.6,26.5,N/A,Snow,Light Snow,290,2013-01-12 14:55:00
9:15 AM,15.8,6.8,68,29.93,10.0,West,18.4,-,N/A,Snow,Light Snow,270,2013-01-12 15:15:00
9:35 AM,15.8,8.6,73,29.94,9.0,West,16.1,24.2,N/A,Snow,Light Snow,280,2013-01-12 15:35:00
9:55 AM,15.8,8.6,73,29.94,10.0,West,18.4,24.2,N/A,Snow,Light Snow,260,2013-01-12 15:55:00
10:15 AM,15.8,8.6,73,29.97,10.0,West,15.0,23.0,N/A,Snow,Light Snow,280,2013-01-12 16:15:00
10:35 AM,17.6,8.6,68,29.96,10.0,WSW,20.7,-,N/A,Snow,Light Snow,250,2013-01-12 16:35:00
10:55 AM,17.6,6.8,63,29.98,10.0,West,19.6,-,N/A,Snow,Light Snow,260,2013-01-12 16:55:00
11:15 AM,15.8,6.8,68,29.97,9.0,West,17.3,-,N/A,,Overcast,270,2013-01-12 17:15:00
11:55 AM,17.6,5.0,58,29.97,10.0,West,25.3,-,N/A,Snow,Light Snow,270,2013-01-12 17:55:00
12:15 PM,17.6,6.8,63,29.98,10.0,West,25.3,32.2,N/A,Snow,Light Snow,280,2013-01-12 18:15:00
12:35 PM,17.6,6.8,63,29.97,10.0,West,26.5,-,N/A,Snow,Light Snow,270,2013-01-12 18:35:00
12:55 PM,17.6,6.8,63,29.96,10.0,West,21.9,29.9,N/A,Snow,Light Snow,280,2013-01-12 18:55:00
1:15 PM,19.4,6.8,58,29.96,10.0,WNW,23.0,-,N/A,Snow,Light Snow,290,2013-01-12 19:15:00
1:35 PM,17.6,6.8,63,29.97,10.0,West,19.6,25.3,N/A,Snow,Light Snow,280,2013-01-12 19:35:00
1:55 PM,17.6,6.8,63,29.97,10.0,West,17.3,26.5,N/A,,Overcast,280,2013-01-12 19:55:00
2:15 PM,17.6,6.8,63,29.98,10.0,West,18.4,25.3,N/A,Snow,Light Snow,280,2013-01-12 20:15:00
2:35 PM,17.6,6.8,63,29.98,10.0,West,18.4,24.2,N/A,,Overcast,280,2013-01-12 20:35:00
2:55 PM,17.6,6.8,63,29.97,9.0,West,18.4,-,N/A,,Overcast,280,2013-01-12 20:55:00
3:15 PM,15.8,6.8,68,29.98,10.0,WNW,19.6,27.6,N/A,Snow,Light Snow,300,2013-01-12 21:15:00
3:35 PM,15.8,3.2,58,30.00,10.0,NW,21.9,-,N/A,,Overcast,310,2013-01-12 21:35:00
3:55 PM,15.8,5.0,62,30.01,10.0,WNW,15.0,-,N/A,Snow,Light Snow,300,2013-01-12 21:55:00
4:15 PM,15.8,5.0,62,30.01,10.0,NW,15.0,23.0,N/A,,Overcast,310,2013-01-12 22:15:00
4:35 PM,14.0,3.2,62,30.01,10.0,WNW,19.6,-,N/A,,Mostly Cloudy,290,2013-01-12 22:35:00
4:55 PM,14.0,3.2,62,30.02,10.0,WNW,13.8,20.7,N/A,,Scattered Clouds,300,2013-01-12 22:55:00
5:15 PM,14.0,3.2,62,30.03,10.0,WNW,10.4,16.1,N/A,,Mostly Cloudy,300,2013-01-12 23:15:00
5:35 PM,14.0,3.2,62,30.02,10.0,NW,13.8,-,N/A,,Overcast,310,2013-01-12 23:35:00
6:15 PM,14.0,5.0,67,30.03,10.0,NW,13.8,-,N/A,,Overcast,310,2013-01-13 00:15:00
6:35 PM,14.0,3.2,62,30.02,10.0,NW,10.4,18.4,N/A,,Overcast,310,2013-01-13 00:35:00
6:55 PM,14.0,3.2,62,30.04,10.0,NW,12.7,-,N/A,,Overcast,310,2013-01-13 00:55:00
7:15 PM,12.2,3.2,67,30.05,10.0,NW,13.8,-,N/A,,Overcast,310,2013-01-13 01:15:00
7:35 PM,12.2,3.2,67,30.08,10.0,West,12.7,-,N/A,Snow,Light Snow,280,2013-01-13 01:35:00
7:55 PM,12.2,3.2,67,30.07,10.0,WNW,10.4,-,N/A,Snow,Light Snow,300,2013-01-13 01:55:00
8:15 PM,12.2,3.2,67,30.05,10.0,WNW,11.5,17.3,N/A,,Overcast,300,2013-01-13 02:15:00
8:35 PM,12.2,3.2,67,30.06,10.0,WNW,9.2,17.3,N/A,,Overcast,300,2013-01-13 02:35:00
8:55 PM,12.2,1.4,62,30.04,10.0,NW,13.8,19.6,N/A,,Mostly Cloudy,310,2013-01-13 02:55:00
9:15 PM,12.2,3.2,67,30.05,10.0,NW,13.8,-,N/A,Rain,Freezing Rain,320,2013-01-13 03:15:00
9:35 PM,10.4,3.2,73,30.04,10.0,WNW,15.0,-,N/A,,Mostly Cloudy,300,2013-01-13 03:35:00
9:55 PM,10.4,3.2,73,30.02,10.0,NW,13.8,-,N/A,,Mostly Cloudy,310,2013-01-13 03:55:00
10:15 PM,10.4,1.4,67,30.03,10.0,NW,11.5,17.3,N/A,,Overcast,320,2013-01-13 04:15:00
10:35 PM,10.4,3.2,73,30.05,10.0,NW,10.4,17.3,N/A,,Overcast,320,2013-01-13 04:35:00
10:55 PM,10.4,1.4,67,30.04,10.0,NW,10.4,18.4,N/A,,Overcast,320,2013-01-13 04:55:00
11:15 PM,10.4,1.4,67,30.04,10.0,NW,11.5,-,N/A,,Overcast,320,2013-01-13 05:15:00
11:35 PM,10.4,1.4,67,30.05,10.0,NW,12.7,-,N/A,Snow,Light Snow,320,2013-01-13 05:35:00
11:55 PM,8.6,1.4,73,30.04,10.0,NNW,15.0,-,N/A,,Overcast,330,2013-01-13 05:55:00